| time (UTC) | temp F | wind direction | speed knots | gust knots | rain 1hr in | rain 24hr in | rain mn in | humidity % | barometer mb |
| 20260505030307 | 61 | 196 | 0.9 | 6.1 | 0.00 | 0.00 | 0.00 | 56 | 1011.0 |
| 20260505025809 | 61 | 153 | 2.6 | 6.1 | 0.00 | 0.00 | 0.00 | 56 | 1011.1 |
| 20260505025111 | 61 | 215 | 1.7 | 4.3 | 0.00 | 0.00 | 0.00 | 56 | 1010.9 |
| 20260505024542 | 62 | 132 | 0.9 | 4.3 | 0.00 | 0.00 | 0.00 | 56 | 1011.0 |
| 20260505023933 | 62 | 181 | 1.7 | 4.3 | 0.00 | 0.00 | 0.00 | 55 | 1011.0 |
| 20260505023448 | 62 | 142 | 1.7 | 4.3 | 0.00 | 0.00 | 0.00 | 55 | 1010.9 |
| 20260505022901 | 62 | 133 | 0.9 | 5.2 | 0.00 | 0.00 | 0.00 | 54 | 1011.0 |
| 20260505022159 | 62 | 207 | 0.9 | 5.2 | 0.00 | 0.00 | 0.00 | 54 | 1011.1 |
| 20260505021719 | 62 | 192 | 0.9 | 2.6 | 0.00 | 0.00 | 0.00 | 54 | 1011.0 |
| 20260505021129 | 63 | 159 | 0.0 | 1.7 | 0.00 | 0.00 | 0.00 | 53 | 1011.1 |
| 20260505020537 | 63 | 120 | 0.9 | 1.7 | 0.00 | 0.00 | 0.00 | 52 | 1011.0 |
| 20260505020057 | 63 | 140 | 0.0 | 1.7 | 0.00 | 0.00 | 0.00 | 52 | 1011.0 |
| 20260505015513 | 64 | 150 | 0.0 | 1.7 | 0.00 | 0.00 | 0.00 | 51 | 1010.9 |
| 20260505014918 | 64 | 110 | 0.9 | 1.7 | 0.00 | 0.00 | 0.00 | 49 | 1010.7 |
| 20260505014325 | 65 | 113 | 0.9 | 3.5 | 0.00 | 0.00 | 0.00 | 50 | 1010.6 |
| 20260505013740 | 65 | 185 | 0.9 | 3.5 | 0.00 | 0.00 | 0.00 | 49 | 1010.5 |
| 20260505013258 | 65 | 169 | 0.9 | 4.3 | 0.00 | 0.00 | 0.00 | 49 | 1010.5 |
| 20260505012556 | 65 | 150 | 1.7 | 6.1 | 0.00 | 0.00 | 0.00 | 47 | 1010.3 |
| 20260505011854 | 66 | 190 | 0.9 | 6.1 | 0.00 | 0.00 | 0.00 | 48 | 1010.3 |
| 20260505011313 | 66 | 170 | 2.6 | 6.1 | 0.00 | 0.00 | 0.00 | 47 | 1010.2 |
| 20260505010821 | 66 | 176 | 2.6 | 6.1 | 0.00 | 0.00 | 0.00 | 47 | 1010.2 |
| 20260505010128 | 66 | 221 | 2.6 | 5.2 | 0.00 | 0.00 | 0.00 | 46 | 1010.2 |
| 20260505005426 | 66 | 167 | 1.7 | 7.0 | 0.00 | 0.00 | 0.00 | 46 | 1010.3 |
| 20260505004836 | 66 | 204 | 2.6 | 7.0 | 0.00 | 0.00 | 0.00 | 46 | 1010.2 |
| 20260505004246 | 66 | 186 | 2.6 | 7.0 | 0.00 | 0.00 | 0.00 | 45 | 1010.3 |
| 20260505003807 | 66 | 165 | 2.6 | 7.0 | 0.00 | 0.00 | 0.00 | 45 | 1010.3 |
| 20260505003234 | 67 | 196 | 2.6 | 5.2 | 0.00 | 0.00 | 0.00 | 45 | 1010.3 |
| 20260505002644 | 67 | 141 | 1.7 | 7.0 | 0.00 | 0.00 | 0.00 | 44 | 1010.3 |
| 20260505002053 | 67 | 209 | 2.6 | 7.0 | 0.00 | 0.00 | 0.00 | 44 | 1010.2 |
| 20260505001504 | 67 | 201 | 1.7 | 7.8 | 0.00 | 0.00 | 0.00 | 44 | 1010.2 |
| 20260505001024 | 68 | 161 | 2.6 | 7.8 | 0.00 | 0.00 | 0.00 | 42 | 1010.2 |
| 20260505000432 | 68 | 209 | 1.7 | 7.0 | 0.00 | 0.00 | 0.00 | 43 | 1010.1 |
| 20260504235844 | 68 | 183 | 4.3 | 9.6 | 0.00 | 0.00 | 0.00 | 42 | 1010.1 |
| 20260504235254 | 69 | 152 | 3.5 | 9.6 | 0.00 | 0.00 | 0.00 | 41 | 1010.1 |
| 20260504234702 | 69 | 211 | 3.5 | 7.0 | 0.00 | 0.00 | 0.00 | 42 | 1010.1 |
| 20260504234224 | 69 | 192 | 2.6 | 7.0 | 0.00 | 0.00 | 0.00 | 41 | 1010.1 |
| 20260504233632 | 70 | 211 | 2.6 | 7.0 | 0.00 | 0.00 | 0.00 | 41 | 1010.1 |
| 20260504233154 | 70 | 207 | 2.6 | 10.4 | 0.00 | 0.00 | 0.00 | 40 | 1010.1 |
| 20260504232709 | 70 | 165 | 4.3 | 10.4 | 0.00 | 0.00 | 0.00 | 39 | 1010.1 |
| 20260504232013 | 70 | 182 | 3.5 | 8.7 | 0.00 | 0.00 | 0.00 | 39 | 1010.1 |
| 20260504231545 | 71 | 178 | 4.3 | 9.6 | 0.00 | 0.00 | 0.00 | 38 | 1010.1 |
| 20260504230942 | 71 | 192 | 3.5 | 9.6 | 0.00 | 0.00 | 0.00 | 39 | 1010.2 |
| 20260504230348 | 71 | 207 | 3.5 | 8.7 | 0.00 | 0.00 | 0.00 | 40 | 1010.2 |
| 20260504225801 | 71 | 209 | 4.3 | 9.6 | 0.00 | 0.00 | 0.00 | 38 | 1010.2 |
| 20260504225319 | 72 | 194 | 5.2 | 11.3 | 0.00 | 0.00 | 0.00 | 38 | 1010.2 |
| 20260504224729 | 72 | 204 | 4.3 | 14.8 | 0.00 | 0.00 | 0.00 | 38 | 1010.2 |
| 20260504224245 | 72 | 290 | 6.1 | 13.9 | 0.00 | 0.00 | 0.00 | 37 | 1010.1 |
| 20260504223702 | 72 | 229 | 4.3 | 11.3 | 0.00 | 0.00 | 0.00 | 38 | 1010.2 |
| 20260504223111 | 72 | 184 | 4.3 | 9.6 | 0.00 | 0.00 | 0.00 | 39 | 1010.3 |
| 20260504222631 | 72 | 194 | 5.2 | 9.6 | 0.00 | 0.00 | 0.00 | 37 | 1010.1 |
| 20260504222149 | 72 | 180 | 6.1 | 9.6 | 0.00 | 0.00 | 0.00 | 38 | 1010.1 |
| 20260504221606 | 72 | 212 | 4.3 | 9.6 | 0.00 | 0.00 | 0.00 | 38 | 1010.1 |
| 20260504221114 | 72 | 184 | 4.3 | 13.0 | 0.00 | 0.00 | 0.00 | 37 | 1010.2 |
| 20260504220507 | 72 | 213 | 6.1 | 13.0 | 0.00 | 0.00 | 0.00 | 38 | 1010.2 |
| 20260504220023 | 73 | 162 | 7.0 | 13.0 | 0.00 | 0.00 | 0.00 | 36 | 1010.0 |
| 20260504215606 | 73 | 209 | 6.1 | 8.7 | 0.00 | 0.00 | 0.00 | 38 | 1010.2 |
| 20260504215007 | 73 | 226 | 2.6 | 9.6 | 0.00 | 0.00 | 0.00 | 39 | 1010.1 |
| 20260504214532 | 73 | 178 | 4.3 | 10.4 | 0.00 | 0.00 | 0.00 | 38 | 1010.1 |
| 20260504214019 | 73 | 216 | 6.1 | 9.6 | 0.00 | 0.00 | 0.00 | 37 | 1010.2 |
| 20260504213511 | 73 | 215 | 6.1 | 12.2 | 0.00 | 0.00 | 0.00 | 37 | 1010.2 |
| 20260504213011 | 73 | 221 | 4.3 | 12.2 | 0.00 | 0.00 | 0.00 | 39 | 1010.2 |
| 20260504212506 | 73 | 227 | 5.2 | 13.0 | 0.00 | 0.00 | 0.00 | 37 | 1010.3 |
| 20260504212008 | 73 | 196 | 6.1 | 13.0 | 0.00 | 0.00 | 0.00 | 38 | 1010.2 |
| 20260504211511 | 73 | 198 | 5.2 | 13.0 | 0.00 | 0.00 | 0.00 | 39 | 1010.2 |
| 20260504211004 | 73 | 216 | 7.0 | 15.6 | 0.00 | 0.00 | 0.00 | 38 | 1010.2 |
| 20260504210511 | 73 | 180 | 7.0 | 15.6 | 0.00 | 0.00 | 0.00 | 39 | 1010.2 |
| 20260504210021 | 73 | 195 | 7.8 | 13.9 | 0.00 | 0.00 | 0.00 | 39 | 1010.2 |
| 20260504205504 | 73 | 225 | 3.5 | 11.3 | 0.00 | 0.00 | 0.00 | 38 | 1010.2 |
| 20260504205004 | 73 | 205 | 7.0 | 11.3 | 0.00 | 0.00 | 0.00 | 38 | 1010.2 |
| 20260504204510 | 73 | 244 | 5.2 | 15.6 | 0.00 | 0.00 | 0.00 | 38 | 1010.2 |
| 20260504204004 | 73 | 196 | 6.1 | 15.6 | 0.00 | 0.00 | 0.00 | 38 | 1010.2 |
| 20260504203505 | 73 | 129 | 6.1 | 13.9 | 0.00 | 0.00 | 0.00 | 38 | 1010.3 |
| 20260504203016 | 73 | 166 | 6.1 | 11.3 | 0.00 | 0.00 | 0.00 | 37 | 1010.2 |
| 20260504202511 | 73 | 217 | 2.6 | 11.3 | 0.00 | 0.00 | 0.00 | 40 | 1010.4 |
| 20260504202003 | 73 | 221 | 6.1 | 11.3 | 0.00 | 0.00 | 0.00 | 38 | 1010.5 |
| 20260504201524 | 72 | 194 | 5.2 | 11.3 | 0.00 | 0.00 | 0.00 | 38 | 1010.5 |
| 20260504201005 | 72 | 257 | 5.2 | 12.2 | 0.00 | 0.00 | 0.00 | 40 | 1010.6 |
| 20260504200506 | 72 | 224 | 7.8 | 13.0 | 0.00 | 0.00 | 0.00 | 38 | 1010.6 |
| 20260504200028 | 73 | 213 | 7.0 | 13.0 | 0.00 | 0.00 | 0.00 | 38 | 1010.7 |
| 20260504195507 | 72 | 273 | 2.6 | 13.0 | 0.00 | 0.00 | 0.00 | 39 | 1010.7 |
| 20260504195003 | 72 | 219 | 7.8 | 13.0 | 0.00 | 0.00 | 0.00 | 38 | 1010.8 |
| 20260504194512 | 73 | 217 | 5.2 | 11.3 | 0.00 | 0.00 | 0.00 | 38 | 1011.0 |
| 20260504194005 | 73 | 200 | 5.2 | 11.3 | 0.00 | 0.00 | 0.00 | 36 | 1011.1 |
| 20260504193508 | 73 | 290 | 3.5 | 9.6 | 0.00 | 0.00 | 0.00 | 40 | 1011.1 |
| 20260504193028 | 72 | 215 | 4.3 | 9.6 | 0.00 | 0.00 | 0.00 | 39 | 1011.2 |
| 20260504192510 | 72 | 137 | 2.6 | 7.8 | 0.00 | 0.00 | 0.00 | 38 | 1011.2 |
| 20260504192010 | 72 | 205 | 2.6 | 7.0 | 0.00 | 0.00 | 0.00 | 39 | 1011.3 |
| 20260504191516 | 72 | 244 | 3.5 | 9.6 | 0.00 | 0.00 | 0.00 | 39 | 1011.4 |
| 20260504191006 | 72 | 240 | 4.3 | 9.6 | 0.00 | 0.00 | 0.00 | 37 | 1011.6 |
| 20260504190511 | 72 | 220 | 7.0 | 9.6 | 0.00 | 0.00 | 0.00 | 40 | 1011.6 |
| 20260504190030 | 71 | 227 | 4.3 | 9.6 | 0.00 | 0.00 | 0.00 | 40 | 1011.7 |
| 20260504185504 | 71 | 165 | 5.2 | 9.6 | 0.00 | 0.00 | 0.00 | 40 | 1011.8 |
| 20260504185009 | 71 | 246 | 3.5 | 13.0 | 0.00 | 0.00 | 0.00 | 39 | 1011.9 |
| 20260504184518 | 71 | 223 | 7.8 | 13.0 | 0.00 | 0.00 | 0.00 | 40 | 1012.0 |
| 20260504184009 | 71 | 222 | 5.2 | 9.6 | 0.00 | 0.00 | 0.00 | 40 | 1012.1 |
| 20260504183513 | 71 | 206 | 5.2 | 12.2 | 0.00 | 0.00 | 0.00 | 40 | 1012.1 |
| 20260504183014 | 71 | 203 | 6.1 | 12.2 | 0.00 | 0.00 | 0.00 | 39 | 1012.2 |
| 20260504182508 | 71 | 206 | 4.3 | 8.7 | 0.00 | 0.00 | 0.00 | 41 | 1012.3 |
| 20260504182011 | 70 | 315 | 3.5 | 12.2 | 0.00 | 0.00 | 0.00 | 39 | 1012.3 |
| 20260504181522 | 70 | 289 | 5.2 | 12.2 | 0.00 | 0.00 | 0.00 | 39 | 1012.3 |
| 20260504181010 | 70 | 232 | 5.2 | 10.4 | 0.00 | 0.00 | 0.00 | 40 | 1012.4 |
| 20260504180508 | 70 | 224 | 5.2 | 10.4 | 0.00 | 0.00 | 0.00 | 38 | 1012.4 |
| 20260504180011 | 70 | 248 | 3.5 | 10.4 | 0.00 | 0.00 | 0.00 | 38 | 1012.5 |
| 20260504175502 | 70 | 242 | 5.2 | 10.4 | 0.00 | 0.00 | 0.00 | 38 | 1012.3 |
| 20260504175006 | 70 | 230 | 6.1 | 9.6 | 0.00 | 0.00 | 0.00 | 40 | 1012.4 |
| 20260504174518 | 69 | 254 | 3.5 | 10.4 | 0.00 | 0.00 | 0.00 | 36 | 1012.5 |
| 20260504174007 | 69 | 231 | 5.2 | 13.0 | 0.00 | 0.00 | 0.00 | 41 | 1012.6 |
| 20260504173508 | 69 | 202 | 7.8 | 13.0 | 0.00 | 0.00 | 0.00 | 39 | 1012.7 |
| 20260504173029 | 69 | 215 | 3.5 | 13.0 | 0.00 | 0.00 | 0.00 | 41 | 1012.6 |
| 20260504172510 | 69 | 209 | 6.1 | 12.2 | 0.00 | 0.00 | 0.00 | 39 | 1012.6 |
| 20260504172015 | 69 | 188 | 7.8 | 10.4 | 0.00 | 0.00 | 0.00 | 42 | 1012.9 |
| 20260504171530 | 69 | 248 | 3.5 | 17.4 | 0.00 | 0.00 | 0.00 | 39 | 1013.0 |
| 20260504171012 | 68 | 238 | 3.5 | 17.4 | 0.00 | 0.00 | 0.00 | 41 | 1013.0 |
| 20260504170506 | 68 | 223 | 5.2 | 10.4 | 0.00 | 0.00 | 0.00 | 43 | 1012.9 |